Data for 10/03/2018

Time Sea-Level Adjusted Pressure Absolute Pressure Temperature Relative Humidity Dew Point   
(mb) (inHg) (mb) (inHg) (C) (F) (%) (C) (F)
00:05 1008 29.77 837 24.72 11.6 52.8 60 4 39.3
00:10 1008 29.77 837 24.72 11.7 53 61 4.5 40.1
00:15 1008 29.77 837 24.72 11.8 53.2 61 4.5 40.1
00:20 1008 29.77 837 24.72 11.6 52.8 62 4.6 40.3
00:25 1008 29.77 837 24.72 11.3 52.4 59 3.7 38.6
00:30 1008 29.77 837 24.72 11.4 52.6 61 4.3 39.7
00:35 1008 29.77 837 24.72 11.2 52.2 60 3.8 38.8
00:40 1008 29.77 837 24.72 11.5 52.7 57 3.4 38
00:45 1008 29.77 837 24.72 11.8 53.2 56 3.3 37.9
00:50 1007 29.74 837 24.72 12.1 53.7 56 3.6 38.5
00:55 1007 29.74 837 24.72 11.8 53.2 59 4 39.2
01:00 1007 29.74 836 24.69 11.2 52.1 61 3.9 39
01:05 1007 29.74 836 24.69 11.2 52.1 59 3.4 38.2
01:10 1007 29.74 836 24.69 11.4 52.5 54 2.6 36.6
01:15 1007 29.74 836 24.69 12.2 53.9 52 2.5 36.6
01:20 1007 29.74 836 24.69 12 53.7 56 3.6 38.4
01:25 1007 29.74 836 24.69 12.2 54 51 2.5 36.5
01:30 1007 29.74 836 24.69 12.8 55.1 52 3.1 37.7
01:35 1007 29.74 836 24.69 12.5 54.5 54 3.6 38.5
01:40 1007 29.74 836 24.69 12.2 53.9 54 3.1 37.7
01:45 1007 29.74 836 24.69 12.4 54.2 53 3.2 37.7
01:50 1007 29.74 836 24.69 12.6 54.6 53 3.3 37.9
01:55 1007 29.74 836 24.69 12.7 54.9 50 2.5 36.6
02:00 1007 29.74 836 24.69 13 55.4 53 3.7 38.6
02:05 1007 29.74 836 24.69 12.2 54 53 3 37.5
02:10 1007 29.74 836 24.69 12.1 53.8 52 2.6 36.7
02:15 1007 29.74 836 24.69 12.4 54.3 52 2.9 37.2
02:20 1007 29.74 836 24.69 12.3 54.2 51 2.6 36.6
02:25 1007 29.74 836 24.69 12.3 54.1 51 2.5 36.6
02:30 1007 29.74 836 24.69 12.3 54.1 52 2.8 37
02:35 1007 29.74 836 24.69 12.3 54.1 50 2.1 35.8
02:40 1007 29.74 836 24.69 12.8 55 46 1.6 34.9
02:45 1007 29.74 836 24.69 13.2 55.7 46 1.8 35.3
02:50 1007 29.74 836 24.69 13.3 56 44 1.5 34.8
02:55 1007 29.74 836 24.69 13.7 56.6 43 1.5 34.8
03:00 1007 29.74 837 24.72 13.8 56.9 42 1.3 34.4
03:05 1007 29.74 837 24.72 14.4 57.8 40 1.1 33.9
03:10 1007 29.74 837 24.72 14.8 58.6 37 0.5 32.8
03:15 1007 29.74 837 24.72 15.3 59.5 37 0.6 33.1
03:20 1007 29.74 837 24.72 15.3 59.5 37 0.7 33.2
03:25 1008 29.77 837 24.72 15.3 59.5 36 0.5 33
03:30 1008 29.77 837 24.72 15.4 59.7 36 0.6 33.1
03:35 1008 29.77 837 24.72 15.3 59.6 37 0.8 33.5
03:40 1008 29.77 837 24.72 15.2 59.4 37 0.8 33.5
03:45 1008 29.77 837 24.72 15.1 59.2 38 1 33.7
03:50 1008 29.77 837 24.72 14.9 58.7 39 1 33.8
03:55 1008 29.77 837 24.72 14.7 58.5 38 0.8 33.4
04:00 1008 29.77 837 24.72 14.7 58.4 38 0.6 33.2
04:05 1008 29.77 837 24.72 14.7 58.5 38 0.6 33.1
04:10 1008 29.77 837 24.72 14.7 58.5 38 0.5 33
04:15 1008 29.77 837 24.72 14.8 58.6 37 0.4 32.8
04:20 1008 29.77 837 24.72 14.8 58.7 38 0.8 33.4
04:25 1008 29.77 837 24.72 14.5 58.2 44 2.4 36.2
04:30 1008 29.77 838 24.75 13.2 55.8 52 3.7 38.6
04:35 1009 29.8 838 24.75 11.7 53.1 59 4.1 39.4
04:40 1009 29.8 838 24.75 10.9 51.6 62 4 39.2
04:45 1009 29.8 838 24.75 10.5 50.9 64 4 39.3
04:50 1009 29.8 838 24.75 10.2 50.3 66 4.1 39.4
04:55 1009 29.8 839 24.78 10 50 67 4.1 39.5
05:00 1010 29.83 839 24.78 9.9 49.8 68 4.3 39.7
05:05 1010 29.83 839 24.78 9.8 49.6 69 4.3 39.8
05:10 1010 29.83 839 24.78 9.7 49.4 69 4.3 39.7
05:15 1010 29.83 839 24.78 9.6 49.2 69 4.3 39.7
05:20 1010 29.83 840 24.81 9.4 49 70 4.3 39.7
05:25 1011 29.85 840 24.81 9.3 48.7 72 4.5 40.1
05:30 1011 29.85 840 24.81 9.1 48.5 73 4.5 40.2
05:35 1011 29.85 840 24.81 9 48.2 74 4.6 40.3
05:40 1011 29.85 840 24.81 8.9 48 74 4.5 40.1
05:45 1011 29.85 840 24.81 8.9 47.9 74 4.5 40.1
05:50 1011 29.85 841 24.83 8.8 47.9 74 4.5 40.1
05:55 1012 29.88 841 24.83 8.7 47.6 76 4.6 40.3
06:00 1012 29.88 841 24.83 8.5 47.4 76 4.6 40.3
06:05 1012 29.88 841 24.83 8.5 47.3 77 4.6 40.4
06:10 1012 29.88 841 24.83 8.3 47 72 3.7 38.6
06:15 1012 29.88 842 24.86 7.9 46.3 71 3.1 37.5
06:20 1013 29.91 842 24.86 7.6 45.8 71 2.7 36.9
06:25 1013 29.91 842 24.86 7.2 45 73 2.7 36.8
06:30 1013 29.91 842 24.86 7 44.5 75 2.8 37
06:35 1013 29.91 842 24.86 6.7 44.1 76 2.7 36.9
06:40 1014 29.94 843 24.89 6.6 43.8 77 2.8 37
06:45 1014 29.94 843 24.89 6.4 43.6 78 2.9 37.2
06:50 1014 29.94 843 24.89 6.3 43.3 78 2.8 37
06:55 1014 29.94 843 24.89 6.3 43.4 78 2.7 36.8
07:00 1014 29.94 843 24.89 6.4 43.5 77 2.6 36.7
07:05 1014 29.94 843 24.89 6.4 43.5 76 2.4 36.4
07:10 1014 29.94 843 24.89 6.4 43.5 75 2.4 36.3
07:15 1014 29.94 844 24.92 6.5 43.6 74 2.2 36
07:20 1015 29.97 844 24.92 6.5 43.7 75 2.4 36.2
07:25 1015 29.97 844 24.92 6.5 43.6 74 2.2 36
07:30 1015 29.97 844 24.92 6.5 43.7 74 2.3 36.1
07:35 1015 29.97 844 24.92 6.4 43.5 76 2.4 36.4
07:40 1015 29.97 844 24.92 6.3 43.4 75 2.2 36
07:45 1015 29.97 845 24.95 6.3 43.4 75 2.1 35.9
07:50 1016 30 845 24.95 6.3 43.3 74 2 35.7
07:55 1016 30 845 24.95 6.3 43.3 76 2.3 36.2
08:00 1016 30 845 24.95 6.2 43.1 74 1.9 35.4
08:05 1016 30 845 24.95 6.2 43.1 74 1.8 35.3
08:10 1016 30 845 24.95 6.2 43.2 74 1.9 35.5
08:15 1016 30 846 24.98 6.2 43.1 74 1.9 35.5
08:20 1017 30.03 846 24.98 6.1 43 72 1.6 34.8
08:25 1017 30.03 846 24.98 6.2 43.1 76 2.3 36.1
08:30 1017 30.03 846 24.98 6.2 43.1 75 2.1 35.7
08:35 1017 30.03 846 24.98 6.2 43.1 76 2.2 35.9
08:40 1017 30.03 846 24.98 5.9 42.7 77 2.2 35.9
08:45 1017 30.03 846 24.98 5.9 42.6 75 1.7 35.1
08:50 1017 30.03 846 24.98 5.9 42.6 75 1.8 35.2
08:55 1017 30.03 847 25.01 6 42.7 76 2 35.6
09:00 1018 30.06 847 25.01 6 42.9 71 1.1 34.1
09:05 1018 30.06 847 25.01 6.1 43 73 1.6 34.9
09:10 1018 30.06 847 25.01 6.2 43.1 73 1.6 35
09:15 1018 30.06 847 25.01 6.2 43.2 65 0.1 32.2
09:20 1018 30.06 847 25.01 6.4 43.5 67 0.7 33.3
09:25 1018 30.06 847 25.01 6.5 43.7 68 1 33.8
09:30 1018 30.06 847 25.01 6.4 43.5 66 0.6 33.1
09:35 1018 30.06 847 25.01 6.2 43.2 63 -0.3 31.4
09:40 1018 30.06 847 25.01 6.2 43.2 58 -1.4 29.5
09:45 1018 30.06 848 25.04 6.3 43.3 57 -1.6 29.2
09:50 1018 30.06 848 25.04 6.3 43.3 58 -1.3 29.7
09:55 1019 30.09 848 25.04 6.3 43.4 57 -1.6 29.1
10:00 1019 30.09 848 25.04 6.3 43.3 55 -2.2 28
10:05 1019 30.09 848 25.04 6.3 43.3 54 -2.3 27.8
10:10 1019 30.09 848 25.04 6.2 43.2 55 -2.3 27.9
10:15 1019 30.09 848 25.04 6.3 43.3 52 -2.8 26.9
10:20 1019 30.09 848 25.04 6.4 43.5 51 -2.9 26.7
10:25 1019 30.09 848 25.04 6.5 43.7 52 -2.6 27.3
10:30 1019 30.09 848 25.04 6.6 43.9 48 -3.6 25.5
10:35 1019 30.09 848 25.04 6.7 44 50 -3.1 26.3
10:40 1019 30.09 848 25.04 6.7 44.1 47 -3.8 25.1
10:45 1019 30.09 848 25.04 6.8 44.2 45 -4.3 24.3
10:50 1019 30.09 848 25.04 7.4 45.2 42 -4.7 23.6
10:55 1019 30.09 848 25.04 7.8 46.1 41 -4.5 23.9
11:00 1019 30.09 848 25.04 8.3 46.9 38 -5.1 22.9
11:05 1019 30.09 848 25.04 8.6 47.5 37 -5.1 22.9
11:10 1019 30.09 848 25.04 9.1 48.4 35 -5.5 22
11:15 1019 30.09 848 25.04 9.4 49 35 -5.2 22.7
11:20 1019 30.09 848 25.04 9.6 49.3 35 -5 22.9
11:25 1019 30.09 849 25.07 9.7 49.5 35 -4.8 23.3
11:30 1019 30.09 848 25.04 9.6 49.3 32 -6.4 20.4
11:35 1019 30.09 848 25.04 9.9 49.9 32 -5.8 21.6
11:40 1019 30.09 848 25.04 10.5 50.8 29 -6.7 19.9
11:45 1019 30.09 848 25.04 10.3 50.5 29 -7.1 19.2
11:50 1019 30.09 848 25.04 10 49.9 31 -6.2 20.9
11:55 1019 30.09 848 25.04 10.8 51.4 29 -6.3 20.6
12:00 1019 30.09 848 25.04 10.6 51 30 -6.5 20.3
12:05 1019 30.09 848 25.04 10.4 50.7 31 -6 21.2
12:10 1019 30.09 848 25.04 10.3 50.5 30 -6.5 20.4
12:15 1019 30.09 848 25.04 9.9 49.9 33 -5.8 21.6
12:20 1019 30.09 848 25.04 9.9 49.8 32 -6 21.2
12:25 1019 30.09 848 25.04 10.4 50.6 32 -5.4 22.2
12:30 1019 30.09 848 25.04 9.6 49.3 33 -5.9 21.4
12:35 1019 30.09 848 25.04 10.4 50.7 32 -5.4 22.3
12:40 1019 30.09 848 25.04 11.1 52 30 -6 21.2
12:45 1019 30.09 848 25.04 11.1 52.1 30 -5.7 21.8
12:50 1019 30.09 848 25.04 11.5 52.7 30 -5.3 22.4
12:55 1019 30.09 848 25.04 11.5 52.7 30 -5.4 22.2
13:00 1019 30.09 848 25.04 11.2 52.2 32 -4.9 23.3
13:05 1019 30.09 848 25.04 10.3 50.5 32 -5.6 22
13:10 1019 30.09 848 25.04 10.7 51.3 31 -5.7 21.8
13:15 1019 30.09 848 25.04 11.6 52.8 31 -5 23
13:20 1019 30.09 848 25.04 10.3 50.5 32 -5.5 22.1
13:25 1018 30.06 848 25.04 11.3 52.3 30 -5.6 21.9
13:30 1018 30.06 848 25.04 12.1 53.7 29 -5.4 22.2
13:35 1018 30.06 848 25.04 11.7 53 29 -5.6 22
13:40 1018 30.06 847 25.01 11.5 52.6 29 -5.7 21.7
13:45 1018 30.06 847 25.01 12.2 54 29 -5.2 22.7
13:50 1018 30.06 847 25.01 11.9 53.4 30 -5 23
13:55 1018 30.06 847 25.01 11.1 51.9 29 -6.3 20.6
14:00 1018 30.06 847 25.01 10.9 51.6 30 -5.8 21.6
14:05 1018 30.06 847 25.01 11.5 52.7 30 -5.5 22.2
14:10 1018 30.06 847 25.01 10.8 51.5 32 -5.3 22.4
14:15 1018 30.06 847 25.01 11.1 52 31 -5.2 22.6
14:20 1018 30.06 847 25.01 11.8 53.2 29 -5.5 22.1
14:25 1018 30.06 847 25.01 11.3 52.3 31 -5.4 22.3
14:30 1018 30.06 847 25.01 11.4 52.5 30 -5.6 22
14:35 1018 30.06 847 25.01 12.2 54 30 -4.8 23.4
14:40 1018 30.06 847 25.01 12.2 53.9 29 -5.2 22.7
14:45 1018 30.06 847 25.01 12.7 54.9 28 -5.4 22.3
14:50 1018 30.06 847 25.01 12.9 55.1 28 -5 22.9
14:55 1018 30.06 847 25.01 12.5 54.6 28 -5.3 22.5
15:00 1018 30.06 847 25.01 12.9 55.2 28 -5.2 22.7
15:05 1018 30.06 847 25.01 13 55.3 29 -4.8 23.4
15:10 1018 30.06 847 25.01 13.1 55.6 27 -5.3 22.4
15:15 1018 30.06 847 25.01 13 55.5 28 -4.9 23.2
15:20 1017 30.03 847 25.01 12.4 54.3 29 -5.3 22.4
15:25 1017 30.03 847 25.01 13.3 55.9 28 -4.7 23.6
15:30 1017 30.03 847 25.01 13.7 56.6 27 -5 23
15:35 1017 30.03 847 25.01 13.4 56.1 27 -5.2 22.7
15:40 1017 30.03 847 25.01 13.3 55.9 29 -4.5 23.8
15:45 1017 30.03 847 25.01 13.4 56 28 -4.7 23.6
15:50 1017 30.03 847 25.01 13.4 56.2 28 -4.8 23.4
15:55 1017 30.03 847 25.01 13.7 56.6 27 -4.8 23.4
16:00 1017 30.03 847 25.01 13.5 56.2 27 -4.9 23.1
16:05 1017 30.03 847 25.01 13.8 56.8 27 -4.8 23.3
16:10 1017 30.03 847 25.01 13.2 55.8 29 -4.6 23.7
16:15 1017 30.03 847 25.01 13.1 55.6 29 -4.4 24
16:20 1017 30.03 847 25.01 12.8 55 29 -4.7 23.6
16:25 1017 30.03 847 25.01 13 55.4 27 -5.4 22.3
16:30 1017 30.03 847 25.01 13.3 56 28 -5 23.1
16:35 1017 30.03 847 25.01 13.9 57 27 -4.9 23.2
16:40 1017 30.03 847 25.01 13.6 56.5 28 -4.5 23.9
16:45 1017 30.03 846 24.98 13.1 55.5 29 -4.5 23.9
16:50 1017 30.03 846 24.98 12.9 55.1 29 -4.6 23.8
16:55 1017 30.03 846 24.98 12.5 54.6 29 -4.9 23.2
17:00 1017 30.03 846 24.98 13.2 55.8 29 -4.4 24.1
17:05 1017 30.03 846 24.98 12.7 54.9 30 -4.5 23.9
17:10 1017 30.03 846 24.98 13 55.3 29 -4.4 24.1
17:15 1017 30.03 846 24.98 13 55.4 29 -4.5 24
17:20 1017 30.03 846 24.98 13.3 55.9 29 -4.2 24.5
17:25 1017 30.03 846 24.98 13.5 56.3 29 -4 24.8
17:30 1017 30.03 846 24.98 13 55.3 31 -3.5 25.7
17:35 1017 30.03 846 24.98 12.3 54.2 32 -3.9 25
17:40 1017 30.03 846 24.98 12.2 54 32 -4 24.8
17:45 1017 30.03 846 24.98 11.9 53.5 33 -3.8 25.1
17:50 1017 30.03 846 24.98 11.7 53 33 -3.9 25
17:55 1017 30.03 846 24.98 11.5 52.7 35 -3.5 25.7
18:00 1017 30.03 846 24.98 10.8 51.4 39 -2.7 27.1
18:05 1017 30.03 846 24.98 10 50.1 40 -3.1 26.5
18:10 1017 30.03 846 24.98 9.6 49.2 40 -3.4 25.9
18:15 1017 30.03 846 24.98 9.1 48.4 40 -3.7 25.3
18:20 1017 30.03 846 24.98 8.8 47.8 42 -3.4 25.9
18:25 1017 30.03 846 24.98 8.4 47.1 43 -3.4 25.9
18:30 1017 30.03 846 24.98 8.2 46.7 44 -3.2 26.2
18:35 1017 30.03 846 24.98 7.9 46.2 45 -3.3 26.1
18:40 1017 30.03 846 24.98 7.6 45.6 46 -3.2 26.2
18:45 1017 30.03 846 24.98 7.3 45.1 47 -3.2 26.2
18:50 1017 30.03 846 24.98 7.1 44.7 48 -3.1 26.4
18:55 1017 30.03 846 24.98 6.9 44.4 49 -3.1 26.4
19:00 1017 30.03 846 24.98 6.7 44 50 -3 26.5
19:05 1017 30.03 846 24.98 6.5 43.7 51 -3 26.6
19:10 1017 30.03 846 24.98 6.3 43.4 53 -2.7 27.2
19:15 1017 30.03 846 24.98 6.1 43 54 -2.6 27.3
19:20 1017 30.03 846 24.98 6 42.7 54 -2.7 27.2
19:25 1017 30.03 846 24.98 5.9 42.5 54 -2.7 27.2
19:30 1017 30.03 846 24.98 5.7 42.2 56 -2.4 27.6
19:35 1017 30.03 846 24.98 5.5 41.9 58 -2.2 28.1
19:40 1017 30.03 846 24.98 5.4 41.6 59 -2 28.4
19:45 1017 30.03 846 24.98 5.2 41.3 60 -1.9 28.6
19:50 1017 30.03 846 24.98 5 41 62 -1.7 28.9
19:55 1017 30.03 846 24.98 4.8 40.6 63 -1.6 29.1
20:00 1017 30.03 847 25.01 4.6 40.3 64 -1.6 29.1
20:05 1017 30.03 847 25.01 4.5 40.1 65 -1.5 29.2
20:10 1017 30.03 846 24.98 4.3 39.8 65 -1.6 29.1
20:15 1017 30.03 846 24.98 4.3 39.7 65 -1.7 29
20:20 1017 30.03 846 24.98 4.2 39.6 66 -1.6 29.1
20:25 1017 30.03 847 25.01 4.1 39.3 66 -1.6 29.1
20:30 1017 30.03 847 25.01 3.9 39 67 -1.6 29
20:35 1017 30.03 847 25.01 3.7 38.7 68 -1.7 28.9
20:40 1017 30.03 847 25.01 3.6 38.5 68 -1.8 28.7
20:45 1018 30.06 847 25.01 3.5 38.4 68 -1.9 28.6
20:50 1018 30.06 847 25.01 3.5 38.3 68 -1.9 28.6
20:55 1018 30.06 847 25.01 3.4 38.2 68 -2 28.4
21:00 1018 30.06 847 25.01 3.3 38 68 -2 28.3
21:05 1018 30.06 847 25.01 3.1 37.6 69 -2.1 28.2
21:10 1017 30.03 847 25.01 3.1 37.5 69 -2.2 28.1
21:15 1017 30.03 847 25.01 3 37.4 69 -2.1 28.2
21:20 1017 30.03 847 25.01 2.9 37.3 69 -2.2 28
21:25 1017 30.03 847 25.01 2.8 37.1 69 -2.2 28
21:30 1017 30.03 847 25.01 2.7 36.9 70 -2.3 27.9
21:35 1017 30.03 846 24.98 2.5 36.5 71 -2.3 27.8
21:40 1017 30.03 846 24.98 2.4 36.3 71 -2.4 27.6
21:45 1017 30.03 846 24.98 2.4 36.3 71 -2.4 27.7
21:50 1017 30.03 846 24.98 2.3 36.1 71 -2.4 27.6
21:55 1017 30.03 846 24.98 2.2 35.9 72 -2.4 27.6
22:00 1017 30.03 846 24.98 2 35.7 72 -2.5 27.4
22:05 1017 30.03 846 24.98 2 35.5 72 -2.5 27.5
22:10 1017 30.03 846 24.98 1.8 35.3 73 -2.5 27.4
22:15 1017 30.03 846 24.98 1.7 35.1 73 -2.6 27.4
22:20 1017 30.03 846 24.98 1.6 35 74 -2.5 27.4
22:25 1017 30.03 847 25.01 1.6 34.8 74 -2.6 27.4
22:30 1017 30.03 847 25.01 1.5 34.7 74 -2.6 27.4
22:35 1017 30.03 847 25.01 1.4 34.6 75 -2.6 27.3
22:40 1017 30.03 847 25.01 1.4 34.5 75 -2.6 27.3
22:45 1017 30.03 847 25.01 1.4 34.5 75 -2.6 27.3
22:50 1017 30.03 847 25.01 1.3 34.4 75 -2.6 27.3
22:55 1017 30.03 847 25.01 1.3 34.3 75 -2.6 27.3
23:00 1017 30.03 847 25.01 1.2 34.2 76 -2.6 27.3
23:05 1017 30.03 847 25.01 1.1 34.1 76 -2.6 27.3
23:10 1017 30.03 847 25.01 1.1 33.9 76 -2.7 27.2
23:15 1017 30.03 846 24.98 1 33.8 76 -2.7 27.1
23:20 1017 30.03 846 24.98 0.9 33.7 76 -2.8 27
23:25 1017 30.03 846 24.98 0.9 33.6 77 -2.8 27
23:30 1017 30.03 846 24.98 0.9 33.6 77 -2.8 27
23:35 1017 30.03 846 24.98 0.7 33.3 77 -2.8 27
23:40 1017 30.03 846 24.98 0.7 33.2 78 -2.8 27
23:45 1017 30.03 846 24.98 0.7 33.2 78 -2.8 27
23:50 1017 30.03 846 24.98 0.6 33.1 78 -2.8 27
23:55 1017 30.03 846 24.98 0.6 33 78 -2.8 26.9
24:00 1017 30.03 846 24.98 0.6 33.1 78 -2.8 27